AO-07 1 07530U 74089B 16014.87099567 -.00000024 00000-0 12622-3 0 9999 2 07530 101.5530 349.5229 0011696 251.1623 136.8311 12.53618993883783 FO-29 1 24278U 96046B 16014.18013747 -.00000020 00000-0 18215-4 0 9995 2 24278 98.5734 319.7448 0349422 243.9596 112.5181 13.53062819958558 SO-33 1 25509U 98061B 16013.76251419 .00000281 00000-0 43641-4 0 9994 2 25509 31.4306 137.3930 0347275 119.8024 243.7596 14.30118697899584 RS-22 1 27939U 03042A 16014.84485966 .00000607 00000-0 11828-3 0 9997 2 27939 97.8641 172.6781 0014263 75.9555 284.3237 14.66289966657207 HO-68 1 36122U 09072B 16014.76719519 -.00000059 00000-0 -43517-4 0 9999 2 36122 100.1670 56.7445 0007464 356.0703 4.0362 13.16331753292299 AO-73 1 39444U 13066AE 16014.84059246 .00001112 00000-0 14657-3 0 9991 2 39444 97.7038 74.5850 0059728 163.9912 196.3206 14.80788271114730 EO-79 1 40025U 14033R 16014.78607727 .00001114 00000-0 12834-3 0 9996 2 40025 97.9393 280.2112 0011941 205.6425 154.4200 14.87711735 85248 XW-2A 1 40903U 15049E 16014.83053391 .00006534 00000-0 19540-3 0 9999 2 40903 97.4511 28.2258 0015924 334.1321 144.1627 15.34796728 17869 XW-2C 1 40906U 15049H 16014.85417653 .00002386 00000-0 13900-3 0 9994 2 40906 97.4536 25.3231 0014820 206.0923 237.9761 15.12869953 17662 LILACSAT-2 1 40908U 15049K 16014.84316171 .00001884 00000-0 11288-3 0 9997 2 40908 97.4604 25.2969 0015572 199.4722 279.2324 15.12100450 17657 XW-2E 1 40909U 15049L 16014.82887997 .00004464 00000-0 25259-3 0 9995 2 40909 97.4538 25.3710 0013982 209.4285 269.2581 15.13474211 17663 UO-11 1 14781U 84021B 16014.76166957 .00000354 00000-0 50272-4 0 9997 2 14781 97.7730 71.3101 0010001 98.9849 261.2497 14.82642437713371 AO-16 1 20439U 90005D 16014.07064911 .00000076 00000-0 44087-4 0 9992 2 20439 98.5614 312.3639 0009700 256.9762 167.2351 14.32602569356932 LO-19 1 20442U 90005G 16013.89631953 .00000063 00000-0 39149-4 0 9990 2 20442 098.5317 311.1052 0010721 243.3825 116.6261 14.32790628357053 AO-27 1 22825U 93061C 16014.09603989 .00000062 00000-0 41534-4 0 9993 2 22825 98.7386 329.5663 0009344 55.5489 304.6575 14.29931432163077 IO-26 1 22826U 93061D 16014.80512714 .00000080 00000-0 48019-4 0 9993 2 22826 98.7331 330.4198 0009747 45.6444 314.5535 14.30253594163333 GO-32 1 25397U 98043D 16014.44353857 .00000033 00000-0 33352-4 0 9997 2 25397 98.5490 323.5561 0002394 79.3735 280.7713 14.23578648909846 NO-44 1 26931U 01043C 16014.88103592 .00000036 00000-0 45794-4 0 9999 2 26931 67.0519 350.9963 0007448 274.5477 85.4773 14.30377892746077 SO-50 1 27607U 02058C 16014.52388728 .00000373 00000-0 73496-4 0 9998 2 27607 64.5554 273.3591 0080082 248.0545 111.2032 14.75020379702455 CO-55 1 27844U 03031E 16014.78698665 .00000141 00000-0 83819-4 0 9998 2 27844 98.6944 25.2848 0010530 53.3736 306.8409 14.21901170650504 CO-57 1 27848U 03031J 16014.01556624 .00000117 00000-0 73425-4 0 9991 2 27848 98.7041 24.5400 0010551 62.7555 297.4696 14.21533938650291 AO-51 1 28375U 04025K 16014.78092615 .00000145 00000-0 55689-4 0 9993 2 28375 98.3154 314.3796 0083657 51.1595 309.7023 14.41740823606971 CP3 1 31129U 07012N 16014.85733324 .00000801 00000-0 18064-3 0 9994 2 31129 98.0109 336.8106 0096636 14.9944 345.4083 14.56124799463911 CO-65 1 32785U 08021C 16014.17907640 .00000843 00000-0 98966-4 0 9999 2 32785 97.6229 54.6984 0014813 90.0896 270.2018 14.87331774417587 PRISM 1 33493U 09002B 16014.83116616 .00002502 00000-0 23800-3 0 9992 2 33493 98.2328 227.5263 0016054 359.4624 0.6561 14.94361551378175 SOHLA-1 1 33496U 09002E 16014.44988743 .00000288 00000-0 54762-4 0 9991 2 33496 98.2378 149.5174 0005762 202.9113 201.1947 14.71515334374241 TISAT-1 1 36799U 10035E 16014.82520088 .00001838 00000-0 19958-3 0 9993 2 36799 98.0216 122.8835 0011883 228.7283 131.2911 14.89361356298445 STUDSAT 1 36801U 10035G 16014.46063490 .00022009 00000-0 10320-2 0 9992 2 36801 98.0791 152.0275 0005760 138.3873 221.7799 15.19685360299974 ALMASAT-1 1 38078U 12006B 16013.94368823 .00037796 36967-5 55879-3 0 9994 2 38078 069.4519 064.0132 0426734 322.6392 034.5887 14.92536073206330 CUBEBUG-1 1 39153U 13018D 16014.84698067 .00000860 00000-0 12151-3 0 9991 2 39153 98.0061 103.5427 0015875 290.4075 69.5432 14.79664719146770 ESTCUBE-1 1 39161U 13021C 16014.83791898 .00000592 00000-0 10333-3 0 9991 2 39161 98.0601 100.8180 0009917 8.2128 351.9239 14.71497504144363 DUCHIFAT-1 1 40021U 14033M 16014.66792512 .00001725 00000-0 18976-3 0 9997 2 40021 97.9418 280.8188 0012472 205.8451 154.2144 14.88871375 85267 NANOSATCBR1 1 40024U 14033Q 16014.79181613 .00001450 00000-0 16259-3 0 9995 2 40024 97.9397 280.5247 0011751 204.5423 155.5236 14.88341476 85263 DTUSAT-2 1 40030U 14033W 16014.66225156 .00001159 00000-0 13435-3 0 9998 2 40030 97.9374 279.6657 0011464 199.0243 161.0546 14.87349594 85206 ANTELSAT 1 40034U 14033AA 16014.65293654 .00000816 00000-0 13092-3 0 9997 2 40034 97.9222 266.8004 0059594 160.7323 199.6162 14.73166392 84428 MET-2/21 1 22782U 93055A 16014.21273414 -.00000016 00000-0 -27911-4 0 9992 2 22782 82.5484 76.2263 0023751 89.7143 323.2558 13.83782817129783 OKEAN-4 1 23317U 94066A 16014.14879933 .00000629 00000-0 67268-4 0 9997 2 23317 82.5371 247.2171 0019981 354.7997 120.6301 14.87008790148640 NOAA-14 1 23455U 94089A 16014.56190411 .00000014 00000-0 30117-4 0 9999 2 23455 98.7363 96.5087 0009264 191.9072 280.7829 14.14065646 85402 NOAA-15 1 25338U 98030A 16014.54604069 .00000078 00000-0 51729-4 0 9990 2 25338 98.7804 18.4099 0009603 275.9345 84.0740 14.25694660918951 RESURS 1 25394U 98043A 16014.84338030 .00000004 00000-0 19877-4 0 9998 2 25394 98.4958 327.5995 0002068 48.1309 338.6440 14.24467062910418 FENGYUN1 1 25730U 99025A 16014.46251230 .00001731 00000-0 93554-3 0 9998 2 25730 98.9634 344.5075 0018855 260.1893 211.0888 14.13862469858904 OKEAN-0 1 25860U 99039A 16013.98881310 .00000388 00000-0 63562-4 0 9995 2 25860 98.1239 347.7561 0001561 68.7838 332.1214 14.76257498887081 NOAA-16 1 26536U 00055A 16014.51913073 -.00000028 00000-0 90490-5 0 9991 2 26536 98.9174 85.0244 0010361 0.0207 0.0964 14.13132104789503 NOAA-17 1 27453U 02032A 16014.51269825 .00000052 00000-0 39826-4 0 9997 2 27453 98.3645 355.2972 0010593 284.8906 75.1101 14.24918485704750 NOAA-18 1 28654U 05018A 16014.54590016 .00000021 00000-0 36961-4 0 9993 2 28654 99.1953 17.4730 0015200 88.6132 271.6780 14.12261170548903 NOAA-19 1 33591U 09005A 16014.54636015 .00000117 00000-0 88786-4 0 9997 2 33591 99.0197 330.2294 0013176 296.9786 63.0039 14.12027938357313 HUBBLE 1 20580U 90037B 16013.94518192 .00001254 00000-0 68051-4 0 9990 2 20580 028.4685 203.6987 0002827 345.2646 164.7120 15.08063512211561 ISS 1 25544U 98067A 16014.86313836 .00012751 00000-0 19703-3 0 9999 2 25544 51.6433 107.6495 0006324 20.6224 86.2579 15.54466951980973 CO-58 1 28895U 05043F 16013.99357380 .00000503 00000-0 10659-3 0 9991 2 28895 97.8216 195.8248 0016797 354.3682 5.7330 14.63057131544412 FALCON 1 30776U 07006E 16014.51711470 .00008323 00000-0 30305-3 0 9994 2 30776 35.4288 113.4276 0000658 296.1057 63.9599 15.27536355488607 MAST 1 31126U 07012K 16013.87209001 .00000589 00000-0 13620-3 0 9998 2 31126 97.9913 337.6968 0090763 359.7278 0.3856 14.56267023464148 CAPE1 1 31130U 07012P 16014.83094664 .00000737 00000-0 16818-3 0 9994 2 31130 98.0128 336.1934 0097417 17.3693 343.0799 14.55778515463673 COMPASS 1 32787U 08021E 16014.18361421 .00001564 00000-0 16112-3 0 9996 2 32787 97.6247 60.1542 0014301 74.2456 286.0339 14.91567974417959 AAUSAT2 1 32788U 08021F 16014.09058020 .00001990 00000-0 19779-3 0 9990 2 32788 97.6252 61.9494 0013727 70.7589 289.5115 14.92718228418053 DO-64 1 32789U 08021G 16013.91161196 .00005283 00000-0 40684-3 0 9998 2 32789 097.6278 075.8047 0013130 067.8081 292.4535 15.02008740418582 CO-66 1 32791U 08021J 16014.82639987 .00001204 00000-0 13205-3 0 9998 2 32791 97.6243 57.9606 0015177 79.9257 280.3672 14.89429134417812 RS-30 1 32953U 08025A 16014.75195038 .00000010 00000-0 -13620-7 0 9998 2 32953 82.5014 202.6729 0018802 340.5672 19.4685 12.43066382346896 METEOR-M 1 35865U 09049A 16014.74046560 -.00000038 00000-0 16330-5 0 9993 2 35865 98.4756 52.2128 0001962 195.0031 300.5399 14.22055405328274 RS-38 1 35869U 09049E 16014.77827263 .00000021 00000-0 28170-4 0 9992 2 35869 98.4671 51.7747 0003793 209.4782 150.6172 14.22325468328331 JUGNU 1 37839U 11058B 16013.32355359 .00000369 00000-0 54717-4 0 9997 2 37839 19.9628 8.5580 0018945 201.4904 288.4883 14.12515890219964 SRMSAT 1 37841U 11058D 16013.42348867 .00000345 00000-0 44887-4 0 9998 2 37841 19.9732 38.9438 0012085 120.8012 14.2887 14.10519432219665 RAX-2 1 37853U 11061D 16014.85026736 .00002967 00000-0 18048-3 0 9992 2 37853 101.7145 335.2673 0188254 177.2159 183.0143 14.98452215228773 AUBIESAT 1 37854U 11061E 16014.84613958 .00004207 00000-0 24555-3 0 9999 2 37854 101.7016 339.7288 0177363 168.8621 191.6596 15.00725065228936 HRBE 1 37855U 11061F 16014.88674405 .00003112 00000-0 17952-3 0 9995 2 37855 101.7188 337.9807 0192007 171.7589 188.6851 14.99648772228859 HORYU-2 1 38340U 12025D 16014.90248399 .00000932 00000-0 14724-3 0 9999 2 38340 98.3397 355.6673 0012533 138.3410 221.8755 14.74781643196739 RS-40 1 38735U 12041C 16014.71202223 .00000040 00000-0 21992-3 0 9995 2 38735 82.4773 288.0812 0017904 78.4900 281.8183 12.42570417157183 PROITERES 1 38756U 12047B 16014.78448406 .00000403 00000-0 66231-4 0 9995 2 38756 98.2282 122.7867 0011986 347.9419 12.1506 14.76066728180211 BEESAT-3 1 39134U 13015E 16014.48954068 .00005476 00000-0 30460-3 0 9994 2 39134 64.8721 100.3068 0015655 234.5254 125.4410 15.14584653150673 BEESAT-2 1 39136U 13015G 16014.73382762 .00004250 00000-0 25276-3 0 9998 2 39136 64.8728 103.8496 0015655 230.4800 129.4941 15.12527624150639 ZACUBE-1 1 39417U 13066B 16014.14704098 .00000915 00000-0 12361-3 0 9996 2 39417 97.7031 73.4803 0060321 167.6510 192.6198 14.80166143115834 TRITON-1 1 39427U 13066M 16014.06481681 .00000753 00000-0 13011-3 0 9991 2 39427 97.6879 57.1204 0114449 212.8947 146.5100 14.67004552114779 DELFIN3XT 1 39428U 13066N 16014.84846277 .00001231 00000-0 20950-3 0 9996 2 39428 97.6900 55.8389 0122464 216.5664 142.7136 14.65986373114749 GOMX-1 1 39430U 13066Q 16014.55237215 .00000776 00000-0 15200-3 0 9998 2 39430 97.6830 47.1590 0151768 243.3818 115.1768 14.58411136114185 LO-74 1 39440U 13066AA 16014.82661381 .00000842 00000-0 12606-3 0 9995 2 39440 97.6965 67.6596 0081511 182.5054 177.5759 14.74947909115523 PUCPSAT-1 1 39442U 13066AC 16014.84323250 .00001458 00000-0 15797-3 0 9997 2 39442 97.7161 84.8324 0033591 141.8652 218.4951 14.89319015115369 SPROUT 1 39770U 14029E 16014.80478802 .00002564 00000-0 30855-3 0 9992 2 39770 97.8723 113.8761 0008759 223.7373 136.3130 14.84754252 89025 POPSAT-HIP1 1 40028U 14033U 16014.84237609 .00001323 00000-0 15157-3 0 9997 2 40028 97.9425 280.3953 0013065 204.5204 155.5409 14.87597007 85240 EO-80 1 40032U 14033Y 16014.68130477 .00001167 00000-0 13550-3 0 9990 2 40032 97.9383 279.6955 0011459 199.1315 160.9472 14.87279773 85201 VELOX-1 1 40057U 14034E 16014.83109319 .00001150 00000-0 17303-3 0 9998 2 40057 98.2028 101.3160 0010050 283.3296 76.6788 14.76404065 83109 DAURIA DX 1 1 40071U 14037C 16014.80114759 .00000545 00000-0 78291-4 0 9999 2 40071 98.3402 99.7412 0007368 284.1691 75.8702 14.80671445 82107 UKUBE-1 1 40074U 14037F 16014.83034790 .00001183 00000-0 15360-3 0 9997 2 40074 98.3429 101.2842 0003583 290.7973 69.2866 14.82768717 82194 HODOYOSHI-1 1 40299U 14070B 16014.85610036 .00002911 00000-0 13553-3 0 9990 2 40299 97.4425 98.7501 0015200 109.1018 317.9850 15.20617615 65979 CHUBUSAT-1 1 40300U 14070C 16014.85951244 .00003133 00000-0 15180-3 0 9997 2 40300 97.4390 97.4147 0022821 114.8371 21.6165 15.19051868 65896 QSAT-EOS 1 40301U 14070D 16014.84324444 .00006287 00000-0 29452-3 0 9993 2 40301 97.4342 96.6168 0031549 116.1391 20.3448 15.19611481 65851 TSUBAME 1 40302U 14070E 16014.81840737 .00003922 00000-0 21203-3 0 9998 2 40302 97.4306 93.9467 0042840 124.9158 14.6800 15.14466058 65680 FIREBIRD FU3 1 40377U 15003B 16014.77377775 .00006142 00000-0 29098-3 0 9996 2 40377 99.0904 92.5681 0148768 279.0795 79.3622 15.10508833 52457 FIREBIRD FU4 1 40378U 15003C 16014.77099638 .00006394 00000-0 30236-3 0 9991 2 40378 99.0908 92.5739 0149050 279.0429 79.3955 15.10510627 52458 GRIFEX 1 40379U 15003D 16014.67944990 .00005220 00000-0 25550-3 0 9991 2 40379 99.0923 92.0415 0151638 281.7593 76.6654 15.09210556 52417 LAMBDA-SAT 1 40458U 98067GB 15136.30676273 .20783109 12527-4 14817-2 0 9995 2 40458 051.6075 233.7697 0010355 318.5347 043.1720 16.39926603 21161 NO-84 1 40654U 15025X 16013.24721880 .00015638 00000-0 35588-3 0 00036 2 40654 054.9943 024.8572 0227598 046.4298 315.5553 15.20478886000274 NO-83 1 40655U 15025X 16013.62997222 .00022490 00000-0 49112-3 0 00047 2 40655 054.9847 021.0659 0215369 048.2934 313.6293 15.23296196000335 DEORBITSAIL 1 40719U 15032E 16014.18472259 .00001548 00000-0 23635-3 0 9992 2 40719 98.0348 267.0428 0017494 18.6732 341.5115 14.75156188 27630 NUDT-PHONESAT 1 40900U 15049B 16014.87009527 .00006915 00000-0 37273-3 0 9998 2 40900 97.4471 25.5068 0014134 228.8349 248.8808 15.15017143 17691 XW-2D 1 40907U 15049J 16014.86419250 .00002616 00000-0 15214-3 0 9997 2 40907 97.4507 25.2749 0014185 204.2389 277.9114 15.12855356 17662 XW-2F 1 40910U 15049M 16014.86433167 .00003747 00000-0 21532-3 0 9990 2 40910 97.4541 25.3241 0015371 203.4366 276.6339 15.13010262 17559 XW-2B 1 40911U 15049N 16014.86276829 .00002562 00000-0 14907-3 0 9993 2 40911 97.4553 25.3509 0014137 203.8241 277.8526 15.12859619 17563 DCBB 1 40912U 15049P 16014.86022373 .00004221 00000-0 22993-3 0 9995 2 40912 97.4546 25.6419 0015995 200.9408 281.4764 15.14842256 17583 TW-1C 1 40926U 15051B 16014.81135755 .00013159 00000-0 41603-3 0 9996 2 40926 97.2951 53.6127 0014163 240.1858 207.2227 15.32823195 17080 TW-1A 1 40928U 15051D 16014.84793583 .00006809 00000-0 22565-3 0 9990 2 40928 97.2898 53.4733 0013147 257.5295 188.8738 15.31523055 17083 IO-86 1 40931U 15052B 16014.25245903 .00000824 00000-0 25939-4 0 9998 2 40931 6.0042 339.6828 0013448 85.2738 274.9101 14.76408258 15996 AAUSat-5 1 40948U 98067GZ 16014.65715157 .00115256 00000-0 84401-3 0 9994 2 40948 51.6360 102.7256 0008724 353.6536 6.4350 15.72275691 15800 GomX-3 1 40949U 98067HA 16014.69994791 .00025418 00000-0 26501-3 0 9999 2 40949 51.6400 104.5394 0006947 1.2774 358.8238 15.64338461 15786 LQSat 1 40958U 15057A 16014.82215707 .00000271 00000-0 50285-4 0 9992 2 40958 98.0318 91.6424 0017078 290.0734 69.8625 14.72790041 14669 AO-85 1 40967U 15058D 16013.30237738 .00001683 00000-0 19002-3 0 00049 2 40967 064.7794 358.4525 0216569 253.0009 104.7256 14.74657108000283 ATHENOXAT-1 1 41168U 15077C 16013.21957681 .00005413 00000-0 29392-3 0 9991 2 41168 14.9886 8.3881 0013024 7.1644 89.5158 15.08711175 4150 /EX